Weather in Krasnyy Oktyabr

Russia / Yaroslavl Oblast     57°19′29″N   39°00′36″E
temp.,
°C
wind,
m/s
gust,
m/s
humid.,
%
clouds,
%
prec.,
mm/h
press.,
hPa
HPBL,
m
25 june, sat
sat2500:00+15n227931 0.0 101720
03:00+13n228621 0.0 101815
06:00+17nnw13785 0.0 101994
09:00+23n23582 0.0 1019569
12:00+26n23445 0.0 10191619
15:00+28ne13414 0.0 10182074
18:00+27ne135511 0.0 10191368
21:00+20wnw11800 0.0 101911
26 june, sun
sun2600:00+18wnw228452 0.0 102014
03:00+17wnw238598 0.0 102140
06:00+19nw25810 0.0 1022146
09:00+25nnw23595 0.0 1022573
12:00+28nnw13445 0.0 10211893
15:00+29nnw33419 0.0 10202167
18:00+28nw34540 0.0 1020460
21:00+22wnw22780 0.0 102015
27 june, mon
mon2700:00+20wsw35760 0.0 102078
03:00+19w310863 0.0 1020193
06:00+20nw310740 0.0 1020295
09:00+25nw59500 0.0 1019737
12:00+28nw58420 0.0 10191704
15:00+29nw57400 0.0 10182336
18:00+27nnw47470 0.0 1018860
21:00+20ene368157 0.0 1019148
28 june, tue
tue2800:00+17ne410930 0.0 1021392
03:00+12ne38767 0.0 1023192
06:00+13ne38705 0.0 1025270
09:00+16ne46540 0.0 1026831
12:00+19ne46400 0.0 10251604
15:00+20ne46360 0.0 10251832
18:00+19ene35460 0.0 10241340
21:00+13nne22700 0.0 102522
29 june, wed
wed2900:00+10nne227028 0.0 102617
03:00+8nne12760 0.0 102711
06:00+11nne23680 0.0 1027126
09:00+17ne34460 0.0 1027902
12:00+20ene34395 0.0 10271542
15:00+21ene34375 0.0 10261665
18:00+21e2345100 0.0 10251032
21:00+14nnw127519 0.0 102511